Location: Newark
(47.5783°N, 6.7622°E)
Time: 16:15:57
(UTC+00:00)

Vanguard 1 - All Passes

Search period start: 26 February 2020 00:00
Search period end: 07 March 2020 00:00
Orbit: 650 x 3833 km, 34.2° (Epoch: 25 February)

Date Brightness Start Highest point End Pass type
(mag) Time Alt. Az. Time Alt. Az. Time Alt. Az.
26 Feb - 02:52:20 10° SE 02:53:00 10° SE 02:53:41 10° SE visible
26 Feb - 04:56:39 10° SSW 05:15:07 31° SE 05:30:41 10° E visible
26 Feb - 07:17:43 10° SW 07:38:51 48° SSE 07:53:15 10° E daylight
26 Feb - 09:43:19 10° WSW 10:02:01 48° SSW 10:13:05 10° ESE daylight
26 Feb - 12:10:49 10° W 12:22:38 27° SW 12:30:15 10° SSE daylight
27 Feb - 03:02:28 10° SSE 03:13:18 16° SE 03:23:52 10° ESE visible
27 Feb - 05:16:06 10° SSW 05:35:53 37° SSE 05:52:12 10° E visible
27 Feb - 07:38:28 10° WSW 07:59:52 51° S 08:14:07 10° ESE daylight
27 Feb - 10:04:40 10° W 10:22:48 45° SSW 10:33:34 10° SE daylight
27 Feb - 12:32:48 10° W 12:42:50 22° SW 12:49:45 10° S daylight
28 Feb - 03:19:14 10° S 03:33:40 21° SE 03:47:38 10° E visible
28 Feb - 05:36:00 10° SW 05:56:44 42° SSE 06:13:29 10° E visible
28 Feb - 07:59:25 10° WSW 08:20:52 53° S 08:34:55 10° ESE daylight
28 Feb - 10:26:05 10° W 10:43:27 42° SSW 10:53:55 10° SE daylight
28 Feb - 12:55:20 10° W 13:02:54 16° SW 13:08:37 10° SSW daylight
29 Feb - 03:37:26 10° S 03:54:07 27° SE 04:10:09 10° E visible
29 Feb - 05:56:14 10° SW 06:17:40 47° SSE 06:34:37 10° E daylight
29 Feb - 08:20:32 10° WSW 08:41:51 53° S 08:55:39 10° ESE daylight
29 Feb - 10:47:37 10° W 11:03:58 37° SSW 11:14:04 10° SSE daylight
29 Feb - 13:19:35 10° WSW 13:22:50 11° SW 13:25:42 10° SW daylight
01 Mar - 01:51:02 10° SE 01:53:08 10° ESE 01:55:14 10° ESE visible
01 Mar - 03:56:25 10° SSW 04:14:39 33° SE 04:32:05 10° E visible
01 Mar - 06:16:44 10° SW 06:38:39 51° SSE 06:55:39 10° E daylight
01 Mar - 08:41:45 10° WSW 09:02:47 51° SSW 09:16:17 10° ESE daylight
01 Mar - 11:09:18 10° W 11:24:21 31° SW 11:34:00 10° SSE daylight
02 Mar - 02:02:43 10° SSE 02:13:13 16° SE 02:24:11 10° E visible
02 Mar - 04:15:55 10° SSW 04:35:18 38° SSE 04:53:39 10° E visible
02 Mar - 06:37:28 10° WSW 06:59:41 53° S 07:16:35 10° ESE daylight
02 Mar - 09:03:03 10° W 09:23:37 49° SSW 09:36:48 10° SE daylight
02 Mar - 11:31:15 10° W 11:44:34 26° SW 11:53:34 10° S daylight
03 Mar - 02:19:42 10° S 02:33:23 21° SE 02:47:59 10° E visible
03 Mar - 04:35:50 10° SW 04:56:05 44° SSE 05:15:01 10° E visible
03 Mar - 06:58:22 10° WSW 07:20:45 55° S 07:37:27 10° ESE daylight
03 Mar - 09:24:28 10° W 09:44:21 45° SSW 09:57:09 10° SE daylight
03 Mar - 11:53:37 10° W 12:04:38 20° SW 12:12:38 10° S daylight
04 Mar - 02:38:01 10° S 02:53:40 27° SE 03:10:34 10° E visible
04 Mar - 04:56:03 10° SW 05:16:58 48° SSE 05:36:13 10° E visible
04 Mar - 07:19:25 10° WSW 07:41:47 55° S 07:58:13 10° ESE daylight
04 Mar - 09:45:58 10° W 10:04:56 40° SSW 10:17:20 10° SSE daylight
04 Mar - 12:16:53 10° W 12:24:35 15° SW 12:30:43 10° SSW daylight
05 Mar - 02:57:04 10° SSW 03:14:03 33° SE 03:32:35 10° E visible
05 Mar - 05:16:32 10° SW 05:37:56 52° SSE 05:57:19 10° E visible
05 Mar - 07:40:34 10° WSW 08:02:47 54° S 08:18:54 10° ESE daylight
05 Mar - 10:07:37 10° W 10:25:22 35° SW 10:37:17 10° SSE daylight
06 Mar - 01:04:08 10° SSE 01:13:13 15° SE 01:23:19 10° E visible
06 Mar - 03:16:37 10° SSW 03:34:35 39° SSE 03:54:14 10° E visible
06 Mar - 05:37:13 10° WSW 05:58:58 55° S 06:18:20 10° ESE daylight
06 Mar - 08:01:49 10° W 08:23:42 51° SSW 08:39:28 10° SE daylight
06 Mar - 10:29:29 10° W 10:45:38 29° SW 10:56:53 10° S daylight
